Location: Dana
(41.8364°N, 106.7042°W)
Time: 02:47:29
(UTC+00:00)

Transit 4A - Pass Details

Date: 12 May 2026
Orbit: 860 x 980 km, 66.8° (Epoch: 6 June)

Event Time Altitude Azimuth Distance (km) Brightness Sun altitude
Rises 16:54:54 0° 243° (WSW) 3,551 10.8 54.0°
Reaches altitude 10° 16:57:44 10° 254° (WSW) 2,632 10.1 54.4°
Maximum altitude 17:03:01 29° 314° (NW) 1,654 9.2 55.2°
Drops below altitude 10° 17:08:28 10° 14° (NNE) 2,708 10.3 56.1°
Sets 17:11:26 0° 25° (NNE) 3,671 11.0 56.5°
